Temperature
29 26 26 26 27 27 27 27 27 28 28 28 27 26 26 26 26 26 25 25 24 24 24 24 24 23 23 22 22 21 21 21 20 20 20 19 19 19 19 19 19 19 19 19
26 26 27 28 29 29 28 27 27 28 29 28 26 26 26 26 26 26 25 25 25 24 24 24 24 23 23 22 22 22 21 21 20 20 20 20 19 19 19 19 19 19 19 19
26 27 29 30 29 29 28 27 27 27 28 27 26 25 25 26 26 26 26 26 25 25 24 24 24 23 23 23 22 22 22 21 21 20 20 20 19 19 19 19 19 19 19 19
27 28 29 29 29 29 28 29 29 28 26 25 26 24 24 25 25 25 25 25 25 25 25 24 24 24 23 23 23 22 22 21 21 21 20 20 20 20 20 19 19 19 19 19
26 28 29 29 30 30 29 30 29 28 26 24 24 24 24 24 24 24 25 25 26 25 25 25 24 24 24 23 23 22 22 22 21 21 20 20 20 20 20 20 19 19 19 19
27 29 29 29 30 30 29 28 26 24 22 23 24 24 23 23 24 24 25 26 26 25 25 25 25 24 24 23 23 23 22 22 21 21 21 20 20 20 20 20 20 19 19 19
27 28 29 30 29 29 28 24 23 24 22 23 23 24 23 24 25 25 25 26 26 26 25 25 24 24 24 24 23 23 22 22 22 21 21 21 20 20 20 20 20 20 19 19
25 25 27 29 29 28 27 24 23 24 23 23 23 24 24 25 26 26 26 26 26 26 26 25 25 25 24 24 23 23 23 22 22 21 21 21 20 20 20 20 20 20 20 19
24 25 28 29 30 29 28 25 23 22 22 22 22 23 24 25 25 25 25 25 25 25 25 25 25 25 25 24 24 24 23 23 22 22 21 21 20 20 20 20 20 20 20 19
25 25 26 28 29 28 28 26 22 22 22 22 23 24 23 24 24 24 23 24 25 25 25 25 25 25 25 24 24 24 23 23 23 22 22 21 21 21 20 20 20 20 19 19
24 24 25 26 27 27 27 26 23 20 21 21 22 22 24 23 23 23 23 24 25 25 25 25 24 25 24 24 24 24 23 23 22 22 22 21 21 21 20 20 20 20 19 19
23 21 22 24 25 27 27 26 23 23 22 20 21 22 24 23 23 23 23 23 24 24 24 24 24 24 24 24 23 23 23 22 22 22 22 21 21 21 20 20 20 20 19 19
23 21 21 22 23 24 26 25 24 21 20 20 21 22 23 22 22 23 23 23 23 23 23 23 23 24 24 23 23 23 22 22 22 22 21 21 21 21 20 20 20 20 19 19
23 20 21 22 22 23 24 25 25 22 21 21 22 22 22 21 21 21 22 22 22 22 22 23 23 23 23 23 23 22 22 22 21 21 21 21 21 20 20 20 19 19 19 19
21 21 22 22 23 25 25 25 25 24 23 22 22 21 21 21 20 21 21 21 21 21 22 22 22 22 23 22 22 22 21 21 21 21 20 21 21 20 20 20 19 19 19 19
19 21 21 22 24 24 24 24 25 24 23 22 22 21 21 21 21 21 21 21 20 20 21 21 21 22 22 21 21 21 21 21 21 20 20 20 20 20 20 19 19 19 19 19
18 19 20 20 22 23 22 23 23 22 22 22 21 21 20 20 20 20 20 20 20 20 21 21 21 21 21 21 21 20 20 20 20 20 20 20 20 19 19 19 19 18 18 18
19 18 17 18 21 21 21 22 23 22 21 21 20 20 20 19 20 20 20 20 20 20 20 20 20 20 20 20 20 20 20 20 20 20 20 19 19 19 19 18 18 18 18 18
18 18 17 17 19 20 21 21 22 20 19 19 19 19 19 19 19 19 19 20 20 20 20 20 20 20 20 20 20 20 20 20 20 20 19 19 19 18 18 18 18 18 18 18
17 17 17 17 19 19 20 21 22 20 18 18 18 18 18 18 17 17 18 19 19 19 19 19 19 19 19 19 19 20 19 19 19 19 19 19 18 18 18 18 18 18 17 17
17 16 17 17 17 18 19 20 21 19 18 18 18 18 18 17 17 17 18 18 18 18 19 19 19 19 19 18 18 18 18 18 18 18 18 18 18 18 18 17 17 17 17 17
16 16 16 15 16 17 18 18 17 17 18 18 18 18 18 18 18 18 18 17 18 18 18 18 18 17 18 18 18 18 17 17 17 17 17 17 17 17 17 17 17 17 17 17
15 15 14 15 15 16 17 17 17 18 17 17 17 17 18 17 17 17 17 17 17 17 17 17 17 17 17 17 17 17 17 16 16 16 16 16 16 16 16 16 16 16 16 16
15 14 14 14 15 15 16 17 17 17 17 17 17 17 17 17 17 17 16 16 16 16 16 16 16 16 16 16 16 16 16 15 15 15 16 16 16 15 15 16 16 16 15 15
14 14 13 14 14 15 16 16 16 17 17 17 17 17 17 16 16 16 16 16 15 15 15 15 15 15 15 15 15 15 15 15 15 15 15 15 15 15 15 15 15 15 15 15
13 13 13 13 14 13 14 15 16 16 16 16 16 16 16 16 16 16 15 15 15 15 15 15 15 15 14 14 14 14 14 14 14 14 14 14 14 14 14 14 14 14 14 14
Wind_Speed
4 2 4 9 9 9 6 5 6 7 5 4 4 6 10 11 10 11 11 12 14 14 12 12 13 14 13 11 11 11 10 9 7 4 4 3 3 3 3 4 7 8 8 8
5 6 11 9 6 5 5 4 5 5 4 4 4 4 7 10 13 14 15 14 13 11 11 12 12 12 13 13 12 11 11 10 8 6 5 4 4 3 3 3 4 7 8 7
9 10 8 7 7 6 6 6 7 5 1 1 3 1 5 7 7 9 12 14 14 17 17 16 15 14 13 13 13 13 12 10 9 8 4 3 2 1 1 2 3 4 7 7
8 9 7 8 8 7 8 9 7 5 4 2 4 3 6 6 6 9 10 12 15 15 15 16 16 16 16 15 13 12 12 11 9 9 7 7 6 5 5 4 4 4 5 5
8 6 6 8 10 6 8 7 4 4 3 1 0 4 6 3 5 9 11 14 15 15 16 17 17 17 16 14 13 12 11 11 10 9 9 8 6 5 4 3 5 5 4 4
9 7 6 8 8 4 3 3 5 6 4 1 5 5 6 6 11 11 11 14 14 14 15 15 14 13 12 12 12 12 11 11 10 10 9 9 8 7 6 5 6 5 4 3
8 9 7 4 5 5 3 6 3 4 4 6 5 2 8 9 11 13 13 13 13 14 14 13 13 14 14 14 13 12 13 11 11 10 10 10 10 9 8 7 7 6 4 3
5 9 7 4 6 7 4 10 8 6 5 6 4 4 8 8 7 7 9 9 9 11 12 12 14 14 15 15 14 13 13 12 11 11 10 9 9 7 6 7 6 6 6 5
7 8 8 6 5 7 4 5 10 8 3 1 5 5 6 3 2 4 6 7 8 9 10 11 12 13 14 14 14 13 13 11 11 11 9 8 8 8 7 7 6 5 5 5
8 5 8 7 4 3 6 6 6 6 5 3 4 3 4 4 3 4 7 7 7 7 8 9 10 12 11 12 12 11 12 12 11 11 10 9 7 7 7 6 6 6 6 5
6 5 6 4 1 3 2 2 4 5 6 7 4 6 5 8 7 7 8 8 7 8 8 8 10 10 10 9 9 10 10 10 10 10 9 8 7 7 6 6 7 7 6 6
3 5 3 7 6 4 4 3 5 4 4 6 5 6 5 5 6 7 8 7 7 8 6 6 7 8 8 8 8 8 9 9 10 10 9 8 7 7 6 7 7 7 6 6
3 6 1 8 8 6 2 1 2 5 4 4 4 5 2 3 4 5 8 8 7 9 8 7 7 7 7 6 6 7 7 8 8 8 9 8 7 7 7 6 6 6 6 5
4 5 6 7 7 4 4 5 1 5 3 3 6 6 3 2 4 5 7 8 8 9 9 8 7 7 7 5 5 5 6 6 6 7 7 7 7 7 7 6 6 6 6 6
5 3 3 4 4 2 3 5 3 1 5 6 6 6 6 4 6 7 8 9 10 9 8 8 7 6 6 4 2 2 4 5 5 5 6 7 7 6 6 6 6 6 6 6
4 3 2 3 3 4 4 5 3 1 1 4 5 2 3 2 5 6 7 10 10 9 8 7 7 6 4 3 2 1 2 3 5 5 5 5 5 5 6 6 5 5 6 5
2 3 2 3 4 4 4 4 0 1 2 4 4 4 3 4 6 7 7 8 9 10 9 8 8 6 4 3 3 1 0 2 4 4 4 4 4 5 5 6 5 5 6 5
3 2 3 1 3 3 6 2 3 6 5 5 4 3 4 5 5 5 6 9 8 7 8 7 7 6 4 3 3 2 1 2 2 2 3 4 4 4 4 5 6 6 5 5
5 6 3 3 2 4 4 4 1 3 4 4 5 6 6 7 8 7 5 5 6 5 5 6 6 6 5 4 4 4 3 3 2 1 3 3 5 5 5 5 5 5 5 5
4 5 5 3 3 4 5 6 2 6 2 4 4 6 6 6 4 1 2 5 6 5 4 3 4 5 4 3 3 5 3 2 2 3 3 3 4 5 5 6 5 3 3 4
4 3 3 3 4 4 5 8 4 2 4 1 3 5 5 3 4 3 3 4 4 4 4 4 4 3 3 3 4 4 2 1 2 3 2 3 3 3 4 4 3 3 3 3
1 1 1 2 2 4 6 4 2 4 2 3 4 4 5 5 5 5 4 4 4 4 4 4 4 2 1 2 4 3 1 1 2 2 2 2 2 2 2 2 2 3 3 3
1 3 3 4 4 3 1 3 2 3 4 3 4 4 6 6 4 4 3 2 2 2 2 2 3 3 1 2 3 2 2 3 3 2 2 1 1 1 2 3 2 2 2 3
4 3 2 2 1 1 3 5 5 5 4 3 3 4 4 4 4 3 2 2 2 1 1 1 2 2 1 1 1 1 1 1 1 2 2 1 1 1 1 1 2 2 2 3
4 3 2 1 1 3 5 4 3 3 4 3 2 1 2 3 3 2 2 2 2 1 1 2 1 2 2 1 0 0 1 1 2 3 2 1 1 1 1 1 1 2 2 3
2 2 2 2 3 2 2 2 2 3 3 2 2 1 1 3 3 3 2 1 1 1 1 2 1 1 1 1 0 1 1 1 1 1 1 1 0 1 1 2 1 3 1 1
Wind_Direction
312 68 243 241 225 215 211 209 238 242 218 172 197 189 198 186 184 187 182 180 180 185 180 171 171 168 165 166 166 167 167 172 162 155 157 160 175 180 179 186 184 182 183 180
345 269 240 234 235 227 219 216 243 267 224 166 180 198 208 194 191 189 183 184 181 179 173 174 174 172 173 175 175 172 174 176 174 173 171 170 169 184 186 186 184 188 186 185
229 245 250 241 243 248 252 211 210 215 246 82 110 353 227 220 202 192 188 184 180 179 180 181 180 181 179 181 181 180 179 178 179 171 158 146 122 116 161 191 199 199 191 193
247 250 261 258 250 227 252 237 207 193 147 226 151 191 252 225 209 196 192 188 188 184 181 183 183 183 186 187 183 178 178 180 180 172 171 169 176 188 203 196 197 201 194 192
257 256 260 259 251 230 236 235 195 181 150 80 47 153 258 215 210 209 197 196 192 189 184 186 188 187 188 185 182 179 177 180 181 180 181 181 189 195 191 185 189 198 200 194
252 258 230 236 258 241 242 45 42 55 66 328 240 171 249 219 209 208 201 196 191 189 187 186 190 185 183 181 179 176 177 184 183 185 185 187 189 187 181 186 191 198 200 203
291 291 281 256 286 320 75 91 38 360 356 256 258 186 239 238 212 196 194 188 186 185 185 182 184 184 182 181 180 178 179 186 186 187 190 193 192 186 187 189 193 195 197 204
238 278 273 257 210 223 210 143 160 190 216 267 306 235 252 251 220 189 181 173 178 183 185 182 184 183 181 180 179 180 184 188 188 189 193 195 190 186 192 194 191 195 199 206
195 249 272 265 245 186 201 189 168 145 165 224 276 273 307 320 159 156 151 146 170 182 183 183 182 181 179 178 179 182 185 189 190 189 188 191 191 191 194 194 192 195 200 204
176 238 280 285 343 331 180 169 104 120 154 229 277 270 239 243 199 155 140 147 174 181 180 181 178 177 177 179 178 181 184 187 186 184 188 195 196 194 193 189 195 198 200 202
155 178 291 340 273 260 349 61 111 131 155 162 216 262 237 199 184 161 155 157 153 161 172 180 180 174 170 168 170 178 184 181 184 187 187 188 191 194 193 196 199 198 197 192
155 138 252 272 269 234 182 180 141 158 222 167 168 254 277 183 165 151 143 142 137 139 148 148 157 153 150 157 165 176 182 185 188 186 185 189 189 189 196 203 203 197 195 196
111 110 54 334 339 357 34 34 107 134 124 146 162 250 301 131 128 136 134 135 130 119 113 113 120 131 137 149 165 176 178 188 189 182 184 186 188 190 198 203 199 194 192 195
111 111 159 200 232 261 301 311 348 105 142 198 199 201 249 154 128 127 121 122 120 118 121 116 112 120 124 136 156 169 179 183 188 184 183 186 191 192 195 193 189 189 192 193
86 131 186 216 239 276 302 304 309 210 195 188 205 184 210 198 155 143 130 123 119 122 122 118 118 114 111 112 129 168 183 176 176 178 185 198 196 189 189 192 193 191 191 194
59 108 53 334 323 342 331 325 320 336 136 150 130 182 227 163 118 118 126 127 127 128 126 126 124 119 116 130 141 165 173 175 159 163 197 202 190 186 192 198 195 191 194 193
43 88 72 286 311 7 317 305 320 46 42 153 177 210 170 119 125 138 129 122 131 135 135 136 138 142 151 164 151 123 227 135 143 161 176 180 186 194 199 196 193 200 203 196
143 116 139 170 37 235 241 286 107 94 54 59 93 111 122 131 119 104 117 125 129 132 138 144 146 148 156 163 139 128 107 111 128 168 187 189 184 183 195 194 197 207 206 204
155 148 129 127 189 267 299 329 333 115 33 20 97 100 93 100 74 49 49 87 111 121 133 143 147 146 150 150 140 131 126 144 159 210 226 212 197 195 195 200 204 209 205 207
60 107 128 135 159 227 266 301 287 103 50 340 95 117 114 97 98 199 59 73 77 77 87 110 123 121 120 116 109 117 127 125 184 222 239 227 208 199 199 203 204 202 201 209
12 35 123 166 201 248 290 317 24 115 218 243 95 103 96 97 161 164 94 76 86 84 76 82 88 97 116 115 105 106 125 179 262 260 250 233 219 211 202 194 192 189 194 190
157 106 169 149 180 253 316 25 95 194 183 119 95 89 92 105 116 114 95 81 78 67 63 78 92 80 82 100 100 88 29 309 317 315 284 253 229 220 189 167 180 182 182 178
77 188 187 181 203 235 8 98 119 134 111 97 91 88 102 104 114 114 115 123 108 90 68 84 111 107 50 83 101 85 350 351 360 348 305 299 295 202 190 171 169 171 173 184
336 18 75 51 7 8 48 62 58 75 87 82 93 106 115 134 137 124 118 100 89 111 132 119 113 115 88 37 81 106 308 340 343 327 316 269 210 263 218 176 166 158 179 193
300 352 36 50 327 14 22 27 41 45 59 75 56 88 120 139 138 140 145 160 172 175 148 123 133 147 169 190 216 297 334 349 334 328 328 303 234 172 138 93 115 164 210 208
278 194 167 221 238 170 256 304 14 46 39 64 86 54 143 156 164 151 159 171 177 184 153 147 167 187 193 185 307 331 336 352 354 330 330 325 263 176 170 157 87 48 53 48
Height
1478 1486 1493 1488 1485 1487 1491 1496 1498 1491 1482 1487 1491 1493 1492 1494 1497 1499 1501 1503 1504 1506 1509 1512 1514 1516 1518 1521 1522 1524 1525 1527 1529 1530 1532 1533 1534 1535 1535 1536 1537 1538 1538 1539
1485 1489 1480 1477 1477 1481 1486 1495 1496 1487 1480 1486 1491 1493 1489 1490 1491 1493 1496 1499 1501 1505 1508 1510 1512 1514 1516 1518 1520 1522 1523 1525 1527 1528 1530 1532 1533 1534 1535 1535 1536 1537 1537 1538
1487 1480 1472 1475 1478 1482 1485 1490 1491 1490 1484 1485 1492 1499 1493 1489 1489 1490 1492 1494 1497 1499 1502 1506 1508 1511 1513 1515 1517 1519 1521 1523 1525 1527 1529 1530 1532 1533 1533 1534 1535 1536 1536 1537
1479 1471 1471 1474 1476 1477 1487 1475 1477 1482 1494 1503 1498 1518 1499 1490 1488 1488 1489 1492 1493 1495 1498 1502 1504 1507 1510 1512 1515 1517 1519 1521 1523 1525 1526 1527 1528 1529 1531 1532 1533 1534 1535 1536
1477 1469 1471 1474 1470 1468 1473 1467 1473 1479 1491 1503 1501 1512 1505 1491 1492 1486 1484 1486 1488 1492 1495 1498 1501 1503 1507 1510 1513 1516 1518 1520 1522 1523 1525 1526 1527 1528 1529 1530 1532 1532 1533 1534
1468 1463 1464 1464 1460 1461 1464 1470 1478 1488 1501 1517 1504 1509 1508 1493 1485 1480 1478 1480 1483 1488 1491 1494 1498 1502 1505 1508 1511 1513 1516 1518 1519 1521 1523 1524 1525 1526 1527 1528 1529 1530 1531 1532
1473 1465 1459 1457 1463 1462 1467 1489 1513 1518 1526 1521 1500 1504 1501 1477 1471 1471 1471 1474 1479 1483 1487 1491 1495 1499 1502 1505 1508 1511 1513 1515 1517 1519 1521 1522 1523 1525 1526 1527 1528 1528 1529 1530
1486 1484 1462 1456 1460 1467 1469 1484 1512 1525 1528 1518 1502 1504 1488 1468 1465 1466 1468 1471 1475 1479 1483 1486 1490 1494 1498 1502 1505 1508 1510 1512 1515 1516 1518 1520 1522 1523 1524 1525 1526 1527 1527 1528
1483 1480 1456 1451 1451 1456 1467 1476 1480 1502 1510 1519 1511 1495 1479 1467 1467 1465 1467 1469 1472 1475 1479 1483 1486 1490 1494 1498 1501 1504 1507 1510 1512 1514 1516 1518 1520 1521 1522 1523 1524 1525 1526 1527
1466 1476 1462 1452 1449 1451 1455 1463 1485 1500 1517 1524 1512 1501 1494 1477 1472 1468 1467 1467 1469 1473 1477 1481 1484 1488 1492 1495 1499 1502 1505 1507 1509 1511 1513 1516 1517 1518 1520 1521 1522 1522 1523 1524
1460 1474 1469 1460 1461 1463 1461 1466 1478 1494 1500 1516 1521 1507 1473 1471 1469 1468 1467 1467 1468 1470 1474 1478 1481 1485 1490 1494 1498 1500 1503 1505 1507 1509 1511 1513 1514 1516 1517 1518 1519 1520 1521 1521
1458 1472 1480 1469 1455 1450 1455 1462 1475 1492 1497 1501 1509 1501 1466 1465 1464 1465 1466 1466 1467 1469 1473 1477 1481 1485 1488 1492 1496 1498 1500 1503 1505 1506 1508 1509 1511 1512 1513 1514 1515 1517 1517 1518
1458 1474 1489 1485 1474 1460 1460 1460 1466 1477 1489 1499 1506 1495 1467 1466 1466 1465 1465 1466 1468 1469 1474 1477 1480 1483 1486 1490 1494 1496 1498 1500 1502 1503 1505 1506 1507 1509 1510 1511 1512 1513 1514 1515
1454 1472 1484 1491 1484 1471 1467 1462 1461 1473 1490 1493 1488 1484 1473 1469 1467 1465 1465 1467 1469 1470 1472 1476 1478 1481 1484 1487 1491 1494 1495 1497 1499 1501 1502 1503 1504 1505 1507 1509 1510 1510 1511 1512
1456 1471 1470 1469 1464 1462 1462 1461 1460 1466 1471 1480 1478 1476 1471 1468 1465 1465 1467 1468 1470 1472 1474 1475 1478 1480 1483 1487 1489 1491 1492 1495 1497 1499 1499 1500 1501 1503 1504 1505 1506 1507 1508 1508
1460 1468 1469 1469 1462 1461 1463 1460 1459 1461 1464 1468 1469 1473 1465 1465 1465 1466 1467 1469 1471 1473 1475 1476 1478 1480 1483 1486 1488 1489 1489 1491 1494 1496 1496 1498 1499 1500 1501 1502 1503 1503 1503 1504
1465 1470 1477 1481 1469 1467 1476 1466 1463 1464 1463 1464 1472 1470 1465 1466 1466 1466 1467 1469 1471 1473 1475 1477 1478 1480 1483 1485 1487 1488 1489 1490 1492 1493 1494 1495 1496 1496 1498 1499 1500 1499 1499 1500
1464 1471 1480 1482 1478 1489 1476 1460 1459 1463 1465 1463 1464 1464 1464 1465 1466 1467 1469 1470 1472 1474 1475 1478 1479 1480 1483 1485 1485 1487 1488 1488 1489 1490 1491 1491 1493 1493 1494 1495 1495 1496 1496 1496
1455 1466 1478 1487 1489 1483 1469 1462 1461 1465 1471 1466 1464 1465 1466 1466 1467 1470 1472 1473 1473 1475 1476 1477 1479 1480 1482 1483 1483 1483 1484 1485 1486 1486 1487 1487 1489 1490 1491 1492 1492 1492 1493 1493
1456 1461 1474 1483 1487 1489 1475 1461 1458 1462 1476 1469 1465 1464 1465 1465 1473 1475 1473 1475 1475 1476 1477 1478 1479 1479 1479 1479 1480 1480 1480 1482 1483 1484 1484 1484 1485 1486 1487 1488 1488 1489 1489 1489
1469 1471 1476 1482 1485 1481 1468 1461 1458 1476 1478 1469 1466 1465 1465 1466 1469 1472 1473 1473 1474 1475 1476 1477 1478 1478 1478 1478 1479 1479 1479 1479 1479 1479 1480 1481 1482 1483 1483 1483 1484 1485 1485 1485
1475 1478 1480 1483 1488 1485 1466 1463 1468 1472 1468 1467 1467 1467 1466 1467 1468 1469 1471 1472 1473 1473 1475 1476 1476 1476 1476 1477 1477 1476 1476 1476 1477 1477 1478 1478 1478 1478 1479 1480 1480 1481 1481 1481
1472 1474 1475 1477 1480 1472 1467 1467 1467 1466 1467 1467 1467 1467 1467 1467 1468 1469 1470 1472 1472 1472 1473 1473 1473 1473 1474 1473 1473 1473 1473 1474 1475 1474 1474 1475 1475 1474 1475 1475 1475 1476 1476 1477
1471 1468 1471 1474 1472 1470 1468 1467 1467 1467 1467 1467 1467 1467 1467 1466 1467 1467 1469 1470 1470 1470 1470 1470 1470 1470 1471 1470 1471 1471 1471 1472 1471 1471 1471 1471 1471 1471 1471 1471 1471 1471 1472 1473
1474 1471 1473 1474 1472 1470 1469 1468 1467 1467 1467 1467 1468 1467 1467 1467 1467 1467 1467 1467 1468 1469 1469 1469 1469 1468 1468 1468 1469 1469 1469 1469 1468 1468 1468 1467 1467 1467 1467 1467 1467 1467 1469 1469
1472 1473 1474 1475 1472 1472 1471 1469 1468 1467 1467 1467 1466 1466 1465 1466 1466 1466 1466 1466 1467 1467 1466 1466 1466 1466 1467 1467 1466 1466 1467 1467 1466 1465 1465 1464 1463 1463 1463 1462 1462 1463 1465 1465